Current weather by "City, St" or "zip code"  
 
Advertise Here

Current Conditions: Roanoke, Roanoke Regional Airport, VA

Fair


71.0 F

Last Updated on Jul 26 2021, 11:54 pm EDT
Humidity: 90%
Wind Speed: N 4.6 mph
Barometer 30.04 in
Dewpoint: 68.0 F
Visibility: 10.00 mi
Precip: --
Heat Index: NA
Wind Chill: NA
Current conditions at:

Roanoke, Roanoke Regional Airport, VA (KROA)

Lat: 37.31694 Lon: 79.97417

Local Radar Image active severe weather and emergency alerts image image weather storm and storm spotter reports image weather observation monitoring service image
Local
Radar
Active
Alerts
Storm Reports Obs
Monitoring

Sign-up For Email & Text Message Weather Alert Notification Services


Advertise Here

Observation History for Roanoke, Roanoke Regional Airport, VA


Time Wind
(mph)
Vis
(mi)
Weather Precip (in) Temperature (F) Relative
Humidity
Wind
Chill
(F)
Heat
Index
(F)
Pressure
Air Dwpt altimeter
(in)
sea level
(mb)
Rmks
11:54 pm EDT N 4.6 10.00 Fair -- 71.0 68.0 90% NA NA 30.04 1015.7
10:54 pm EDT N 3.5 10.00 Fair -- 73.0 66.9 81% NA NA 30.04 1015.6
9:54 pm EDT E 4.6 10.00 A Few Clouds -- 72.0 68.0 87% NA NA 30.02 1015.3
8:54 pm EDT W 6.9 10.00 Partly Cloudy Trace 74.0 68.0 82% NA NA 30.00 1014.5
7:54 pm EDT NE 15.0 10.00 Thunderstorm in Vicinity 00.04 73.0 66.0 79% NA NA 30.03 1015.7
6:54 pm EDT N 0.0 10.00 Mostly Cloudy -- 82.0 71.1 69% NA 86 29.99 1014.2
5:54 pm EDT S 8.1 10.00 Partly Cloudy -- 84.0 70.0 63% NA 88 29.99 1014.0
4:54 pm EDT S 11.5 10.00 Partly Cloudy -- 87.0 73.0 63% NA 94 29.98 1013.6
3:54 pm EDT 5.8 10.00 Partly Cloudy 00.01 82.0 72.0 72% NA 87 29.99 1014.2
2:54 pm EDT W 10.4 G 28.8 1.00 Thunderstorm Light Rain -- 77.0 68.0 74% NA NA 29.99 1014.2
1:54 pm EDT N 9.2 10.00 Thunderstorm in Vicinity -- 82.0 71.1 69% NA 86 29.99 1014.0
12:54 pm EDT N 18.4 G 24.2 10.00 Thunderstorm Light Rain -- 86.0 71.1 61% NA 92 30.01 1014.8
11:54 am EDT N 0.0 10.00 Fair -- 89.0 71.1 55% NA 95 30.01 1014.7
10:54 am EDT 4.6 10.00 A Few Clouds -- 87.0 71.1 59% NA 93 30.02 1014.9
9:54 am EDT 3.5 10.00 A Few Clouds -- 85.0 71.1 63% NA 90 30.03 1015.4
8:54 am EDT W 4.6 10.00 Partly Cloudy -- 81.0 71.1 72% NA 85 30.03 1015.4
7:54 am EDT N 0.0 10.00 Mostly Cloudy -- 78.0 70.0 76% NA NA 30.02 1015.2
6:54 am EDT N 4.6 10.00 Fair -- 76.0 70.0 82% NA NA 30.01 1014.9
5:54 am EDT NW 3.5 10.00 Partly Cloudy -- 77.0 70.0 79% NA NA 30.00 1014.4
4:54 am EDT NW 3.5 10.00 Fair -- 76.0 70.0 82% NA NA 30.00 1014.4
3:54 am EDT W 5.8 10.00 Fair -- 76.0 70.0 82% NA NA 30.00 1014.2
2:54 am EDT N 0.0 10.00 Fair -- 78.0 70.0 76% NA NA 30.00 1014.3
1:54 am EDT N 0.0 10.00 Fair -- 77.0 71.1 82% NA NA 30.00 1014.3
12:54 am EDT SE 3.5 10.00 Fair -- 78.0 72.0 82% NA NA 30.00 1014.3

Regional Weather Observation


Lewisburg / Greenbrier, WV (KLWB)

Fair
70.0 F

Roanoke, Roanoke Regional Airport, VA (KROA)

Fair
71.0 F

Dublin / New River Valley, VA (KPSK)

Fog
67.0 F

Hot Springs / Ingalls, VA (KHSP)

Thunderstorm Heavy Rain
69.0 F

Lynchburg, Lynchburg Regional Airport, VA (KLYH)

Fog/Mist
71.0 F

Brookneal/Campbell County Airport, VA (K0V4)

Fair
77.0 F
Advertise Here

Advertise Here